TimeCST,TemperatureF,Dew PointF,Humidity,Sea Level PressureIn,VisibilityMPH,Wind Direction,Wind SpeedMPH,Gust SpeedMPH,PrecipitationIn,Events,Conditions,WindDirDegrees,DateUTC
12:56 AM,10.0,1.9,70,30.40,6.0,North,3.5,-,0.00,Snow,Light Snow,350,2013-01-22 06:56:00
1:56 AM,9.0,3.0,77,30.40,5.0,Calm,Calm,-,0.00,Snow,Light Snow,0,2013-01-22 07:56:00
2:40 AM,10.4,3.2,73,30.28,2.0,Calm,Calm,-,0.00,Snow,Light Snow,0,2013-01-22 08:40:00
2:56 AM,10.0,3.9,76,30.38,2.0,Calm,Calm,-,0.01,Snow,Light Snow,0,2013-01-22 08:56:00
3:09 AM,8.6,3.2,79,30.29,4.0,Calm,Calm,-,0.00,Snow,Light Snow,0,2013-01-22 09:09:00
3:56 AM,9.0,3.9,80,30.37,3.0,ESE,3.5,-,0.00,Snow,Light Snow,110,2013-01-22 09:56:00
4:56 AM,10.0,5.0,80,30.37,6.0,SE,4.6,-,0.01,,Haze,130,2013-01-22 10:56:00
5:56 AM,10.0,5.0,80,30.37,3.0,East,4.6,-,0.00,Snow,Light Snow,100,2013-01-22 11:56:00
6:04 AM,10.4,5.0,79,30.28,2.0,East,4.6,-,0.00,Snow,Light Snow,90,2013-01-22 12:04:00
6:36 AM,10.4,5.0,79,30.28,4.0,East,4.6,-,0.00,Snow,Light Snow,90,2013-01-22 12:36:00
6:56 AM,10.0,5.0,80,30.39,6.0,East,4.6,-,0.00,Snow,Light Snow,100,2013-01-22 12:56:00
7:56 AM,9.0,3.9,80,30.40,10.0,ESE,6.9,-,0.00,,Overcast,110,2013-01-22 13:56:00
8:56 AM,10.0,3.9,76,30.41,10.0,ESE,6.9,-,N/A,,Overcast,120,2013-01-22 14:56:00
9:56 AM,10.9,6.1,81,30.40,8.0,SSE,9.2,-,N/A,,Overcast,150,2013-01-22 15:56:00
10:56 AM,12.9,7.0,77,30.41,10.0,SSE,10.4,-,N/A,,Overcast,150,2013-01-22 16:56:00
11:56 AM,17.1,9.0,71,30.38,10.0,South,9.2,-,N/A,,Overcast,180,2013-01-22 17:56:00
12:33 PM,17.6,8.6,68,30.26,10.0,SSE,11.5,-,N/A,,Overcast,160,2013-01-22 18:33:00
12:56 PM,18.0,10.0,71,30.34,10.0,SSE,10.4,-,N/A,,Mostly Cloudy,160,2013-01-22 18:56:00
1:29 PM,19.4,10.4,68,30.21,10.0,SSE,10.4,-,N/A,,Scattered Clouds,160,2013-01-22 19:29:00
1:56 PM,21.9,12.0,66,30.30,10.0,South,9.2,-,N/A,,Scattered Clouds,170,2013-01-22 19:56:00
2:56 PM,24.1,9.0,53,30.28,10.0,South,12.7,-,N/A,,Clear,190,2013-01-22 20:56:00
3:56 PM,24.1,9.0,53,30.27,10.0,South,9.2,-,N/A,,Clear,190,2013-01-22 21:56:00
4:56 PM,21.9,9.0,58,30.27,10.0,SSW,12.7,-,N/A,,Clear,200,2013-01-22 22:56:00
5:56 PM,18.0,8.1,65,30.28,10.0,SSW,8.1,-,N/A,,Clear,200,2013-01-22 23:56:00
6:56 PM,17.1,8.1,68,30.28,10.0,South,6.9,-,N/A,,Clear,180,2013-01-23 00:56:00
7:56 PM,16.0,8.1,71,30.26,10.0,South,8.1,-,N/A,,Clear,170,2013-01-23 01:56:00
8:56 PM,16.0,9.0,74,30.25,10.0,SSE,6.9,-,N/A,,Clear,150,2013-01-23 02:56:00
9:56 PM,15.1,9.0,77,30.26,10.0,SSE,5.8,-,N/A,,Clear,150,2013-01-23 03:56:00
10:56 PM,14.0,9.0,80,30.27,10.0,SE,5.8,-,N/A,,Clear,140,2013-01-23 04:56:00
11:56 PM,14.0,9.0,80,30.25,10.0,SSE,4.6,-,N/A,,Clear,160,2013-01-23 05:56:00